Location: Azul
(36.7830°S, 59.8500°W)
Time: 21:16:06
(UTC-03:00)

RS-44 - Pass Details

Date: 23 September 2024
Orbit: 1174 x 1511 km, 82.5° (Epoch: 11 October)

Event Time Altitude Azimuth Distance (km) Brightness Sun altitude
Rises 03:59:49 0° 197° (SSW) 4,484 ? -32.9°
Reaches altitude 10° 04:02:51 10° 205° (SSW) 3,546 ? -32.3°
Enters shadow 04:06:49 26° 226° (SW) 2,553 ? -31.6°
